Dover AFB, DE

9:43 AM EDT on September 20, 2017 (GMT -0400)
Dover Air Force Base

Weather History for KDOV - November, 2011

Change the Weather History Date:

Sunday, November 6, 2011

  Actual Average Record
Temperature  
Mean Temperature 44 °F -  
Max Temperature 55 °F 58 °F 80 °F (1948)
Min Temperature 34 °F 39 °F 23 °F (1991)
Degree Days  
Heating Degree Days 21    
Moisture  
Dew Point 40 °F    
Average Humidity 81    
Maximum Humidity 93    
Minimum Humidity 60    
Precipitation  
Precipitation 0.00 in - - ()
Sea Level Pressure  
Sea Level Pressure 30.48 in    
Wind  
Wind Speed 4 mph (NNE)    
Max Wind Speed 8 mph    
Max Gust Speed -    
Visibility 10 miles    
Events      
Averages and records for this station are not official NWS values.
T = Trace of Precipitation, MM = Missing Value Source: NWS Daily Summary

Daily Weather History Graph

Daily Weather History Graph

Search for Another Location

Airport or City:

Trip Planner

Search our weather history database for the weather conditions in past years. The results will help you decide how hot, cold, wet, or windy it might be!

Date:

Astronomy

Nov. 06, 2011 Rise Set
Actual Time 6:34 AM EST 4:55 PM EST
Civil Twilight 6:06 AM EST 5:23 PM EST
Nautical Twilight 5:34 AM EST 5:55 PM EST
Astronomical Twilight 5:03 AM EST 6:26 PM EST
Moon 2:37 PM EST (11/6) 2:40 AM EST (11/6)
Length of Visible Light 11h 17m
Length of Day
10h 21m
Waxing Gibbous, 85% of the Moon is Illuminated
Nov 6
Waxing Gibbous
Nov 10
Full
Nov 18
Last Quarter
Nov 25
New
Dec 2
First Quarter

Hourly Weather History & Observations

Time (EST) Temp. Windchill Dew Point Humidity Pressure Visibility Wind Dir Wind Speed Gust Speed Precip Events Conditions
12:55 AM 36.9 °F - 32.7 °F 85% 30.48 in 10.0 mi Calm Calm - N/A   Clear
1:55 AM 34.5 °F 30.4 °F 32.0 °F 90% 30.48 in 10.0 mi NW 4.6 mph - N/A   Mostly Cloudy
1:55 AM 36.3 °F 30.8 °F 34.3 °F 93% 30.48 in 10.0 mi WNW 6.9 mph - N/A   Overcast
2:55 AM 39.0 °F 36.8 °F 36.5 °F 91% 30.48 in 10.0 mi NNW 3.5 mph - N/A   Overcast
3:55 AM 40.8 °F 37.8 °F 37.9 °F 89% 30.49 in 10.0 mi NNW 4.6 mph - N/A   Overcast
4:55 AM 41.0 °F 37.1 °F 38.1 °F 89% 30.51 in 10.0 mi NNW 5.8 mph - N/A   Overcast
5:55 AM 41.5 °F 37.8 °F 38.5 °F 89% 30.51 in 10.0 mi NNW 5.8 mph - N/A   Overcast
6:55 AM 41.5 °F 38.6 °F 39.2 °F 91% 30.52 in 10.0 mi North 4.6 mph - N/A   Overcast
7:55 AM 43.5 °F 40.9 °F 39.6 °F 86% 30.54 in 10.0 mi NNW 4.6 mph - N/A   Overcast
8:55 AM 46.6 °F - 40.6 °F 80% 30.56 in 10.0 mi North 5.8 mph - N/A   Overcast
9:55 AM 48.9 °F - 39.7 °F 71% 30.55 in 10.0 mi NNW 5.8 mph - N/A   Overcast
10:55 AM 51.4 °F - 40.6 °F 67% 30.54 in 10.0 mi Calm Calm - N/A   Overcast
11:55 AM 53.6 °F - 39.9 °F 60% 30.52 in 10.0 mi Calm Calm - N/A   Overcast
12:55 PM 54.7 °F - 41.4 °F 61% 30.49 in 10.0 mi ENE 3.5 mph - N/A   Overcast
1:55 PM 54.1 °F - 41.5 °F 62% 30.46 in 10.0 mi East 8.1 mph - N/A   Mostly Cloudy
2:55 PM 54.7 °F - 41.7 °F 62% 30.44 in 10.0 mi East 8.1 mph - N/A   Clear
3:55 PM 52.9 °F - 41.5 °F 65% 30.43 in 10.0 mi East 8.1 mph - N/A   Clear
4:55 PM 48.6 °F - 41.7 °F 77% 30.42 in 10.0 mi ESE 5.8 mph - N/A   Clear
5:55 PM 46.4 °F 45.2 °F 41.5 °F 83% 30.42 in 10.0 mi SE 3.5 mph - N/A   Clear
6:55 PM 46.9 °F - 42.1 °F 83% 30.43 in 10.0 mi SSE 4.6 mph - N/A   Clear
7:55 PM 45.9 °F - 42.6 °F 88% 30.43 in 10.0 mi Calm Calm - N/A   Clear
8:55 PM 45.1 °F - 42.4 °F 90% 30.43 in 10.0 mi Calm Calm - N/A   Clear
9:55 PM 44.6 °F 43.1 °F 42.8 °F 93% 30.42 in 10.0 mi SSW 3.5 mph - N/A   Clear
10:55 PM 43.3 °F - 41.5 °F 93% 30.42 in 10.0 mi Calm Calm - N/A   Clear